Weather History for KBTA - June, 2014

Change the Weather History Date:

Thursday, June 26, 2014

  Actual Average (KOMA) Record (KOMA)
Temperature  
Mean Temperature 76 °F 75 °F  
Max Temperature 84 °F 86 °F 105 °F (1936)
Min Temperature 68 °F 64 °F 50 °F (1974)
Degree Days  
Heating Degree Days 0 0  
Month to date heating degree days 15  
Since 1 June heating degree days 15  
Since 1 July heating degree days 6165  
Cooling Degree Days 10 10  
Month to date cooling degree days 187  
Year to date cooling degree days 269  
Since 1 June cooling degree days 187  
Growing Degree Days 26 (Base 50)    
Moisture  
Dew Point 66 °F    
Average Humidity 79    
Maximum Humidity 91    
Minimum Humidity 65    
Precipitation  
Precipitation 0.18 in 0.14 in 2.90 in (1935)
Month to date precipitation 3.69  
Year to date precipitation 14.97  
Snow  
Snow 0.00 in 0.00 in - ()
Month to date snowfall 0.0  
Since 1 July snowfall 26.4  
Snow Depth -    
Sea Level Pressure  
Sea Level Pressure 29.89 in    
Wind  
Wind Speed 7 mph (SE)    
Max Wind Speed 26 mph    
Max Gust Speed 34 mph    
Visibility 10 miles    
Events Rain , Thunderstorm    
T = Trace of Precipitation, MM = Missing Value Source: NWS Daily Summary

Daily Weather History Graph

Daily Weather History Graph

Search for Another Location

Airport or City:

Trip Planner

Search our weather history database for the weather conditions in past years. The results will help you decide how hot, cold, wet, or windy it might be!

Date:

Astronomy

Jun. 26, 2014 Rise Set
Actual Time 5:52 AM CDT 9:02 PM CDT
Civil Twilight 5:18 AM CDT 9:36 PM CDT
Nautical Twilight 4:35 AM CDT 10:19 PM CDT
Astronomical Twilight 3:43 AM CDT 11:11 PM CDT
Moon 5:33 AM CDT (6/26) 8:22 PM CDT (6/26)
Length of Visible Light 16h 17m
Length of Day
15h 09m
Waning Crescent, 0% of the Moon is Illuminated
Jun 26
Waning Crescent
Jun 27
New
Jul 5
First Quarter
Jul 12
Full
Jul 18
Last Quarter

Hourly Weather History & Observations

Time (CDT) Temp. Heat Index Dew Point Humidity Pressure Visibility Wind Dir Wind Speed Gust Speed Precip Events Conditions
12:15 AM 71.8 °F - 63.5 °F 75% 29.97 in 10.0 mi ESE 8.1 mph - N/A   Scattered Clouds
12:35 AM 71.8 °F - 63.9 °F 76% 29.98 in 10.0 mi Calm Calm - N/A   Mostly Cloudy
12:55 AM 72.0 °F - 64.0 °F 76% 29.97 in 10.0 mi ESE 3.5 mph - N/A   Overcast
1:15 AM 71.1 °F - 64.4 °F 79% 29.97 in 10.0 mi SE 3.5 mph - N/A   Overcast
1:35 AM 71.8 °F - 64.4 °F 77% 29.96 in 10.0 mi SE 4.6 mph - N/A   Mostly Cloudy
1:55 AM 71.4 °F - 64.4 °F 78% 29.96 in 10.0 mi SE 5.8 mph - N/A   Scattered Clouds
2:15 AM 71.6 °F - 64.4 °F 78% 29.96 in 10.0 mi SE 5.8 mph - N/A   Mostly Cloudy
2:35 AM 71.4 °F - 64.8 °F 79% 29.96 in 10.0 mi SSE 4.6 mph - N/A Rain Light Rain
3:15 AM 70.7 °F - 65.7 °F 84% 29.95 in 10.0 mi SSE 5.8 mph - N/A Rain Light Rain
3:35 AM 70.9 °F - 65.5 °F 83% 29.95 in 10.0 mi SSE 5.8 mph - N/A   Mostly Cloudy
3:55 AM 71.6 °F - 65.3 °F 80% 29.94 in 10.0 mi SE 4.6 mph - N/A   Scattered Clouds
4:15 AM 70.7 °F - 65.3 °F 83% 29.93 in 10.0 mi SE 5.8 mph - N/A   Scattered Clouds
4:35 AM 70.7 °F - 65.1 °F 82% 29.93 in 10.0 mi SSE 4.6 mph - N/A   Scattered Clouds
4:55 AM 70.9 °F - 65.3 °F 82% 29.92 in 10.0 mi SE 6.9 mph - N/A   Mostly Cloudy
5:15 AM 70.0 °F - 64.9 °F 84% 29.92 in 10.0 mi SE 3.5 mph - N/A   Scattered Clouds
5:35 AM 69.8 °F - 65.3 °F 86% 29.92 in 10.0 mi ESE 6.9 mph - N/A Thunderstorm Scattered Clouds
5:55 AM 70.7 °F - 64.8 °F 81% 29.91 in 10.0 mi SE 5.8 mph - N/A   Mostly Cloudy
6:15 AM 70.5 °F - 63.7 °F 79% 29.92 in 10.0 mi SE 4.6 mph - N/A   Scattered Clouds
6:35 AM 70.5 °F - 62.6 °F 76% 29.92 in 10.0 mi SE 4.6 mph - N/A   Scattered Clouds
6:55 AM 70.3 °F - 63.0 °F 77% 29.90 in 10.0 mi SE 5.8 mph - N/A   Clear
7:15 AM 71.1 °F - 64.2 °F 79% 29.91 in 10.0 mi SE 5.8 mph - N/A   Clear
7:35 AM 71.4 °F - 65.1 °F 80% 29.92 in 10.0 mi SSE 5.8 mph - N/A   Clear
7:55 AM 72.5 °F - 65.8 °F 80% 29.92 in 10.0 mi ESE 4.6 mph - N/A   Scattered Clouds
8:15 AM 73.4 °F - 66.2 °F 78% 29.93 in 10.0 mi SE 5.8 mph - N/A   Clear
8:35 AM 74.3 °F - 66.9 °F 78% 29.93 in 10.0 mi ESE 8.1 mph - N/A   Clear
8:55 AM 75.2 °F - 67.5 °F 77% 29.93 in 10.0 mi SE 10.4 mph - N/A   Clear
9:15 AM 76.1 °F - 68.0 °F 76% 29.92 in 10.0 mi SSE 12.7 mph - N/A   Clear
9:35 AM 77.2 °F - 68.7 °F 75% 29.91 in 10.0 mi SSE 9.2 mph - N/A   Clear
9:55 AM 77.0 °F - 68.4 °F 75% 29.91 in 10.0 mi SSE 9.2 mph - N/A   Clear
10:15 AM 78.1 °F - 69.1 °F 74% 29.90 in 10.0 mi South 8.1 mph - N/A   Clear
10:35 AM 79.5 °F - 69.4 °F 71% 29.91 in 10.0 mi SSE 5.8 mph - N/A   Clear
10:55 AM 79.7 °F - 69.3 °F 70% 29.90 in 10.0 mi ESE 8.1 mph - N/A   Scattered Clouds
11:15 AM 80.1 °F 82.9 °F 69.3 °F 69% 29.90 in 10.0 mi SSE 11.5 mph - N/A   Mostly Cloudy
11:35 AM 81.5 °F 85.3 °F 70.5 °F 69% 29.90 in 10.0 mi SE 11.5 mph - N/A   Mostly Cloudy
11:55 AM 81.3 °F 85.2 °F 70.5 °F 70% 29.89 in 10.0 mi SE 10.4 mph 16.1 mph N/A   Mostly Cloudy
12:15 PM 81.7 °F 85.6 °F 70.7 °F 69% 29.88 in 10.0 mi SSE 10.4 mph - N/A   Mostly Cloudy
12:35 PM 82.0 °F 86.3 °F 71.1 °F 69% 29.88 in 10.0 mi SSE 9.2 mph 16.1 mph N/A   Scattered Clouds
12:55 PM 82.4 °F 86.7 °F 70.9 °F 68% 29.87 in 10.0 mi SSE 11.5 mph 18.4 mph N/A   Scattered Clouds
1:15 PM 82.8 °F 86.7 °F 70.0 °F 65% 29.87 in 10.0 mi SSE 10.4 mph - N/A   Mostly Cloudy
1:35 PM 83.1 °F 87.6 °F 70.9 °F 66% 29.87 in 10.0 mi SSE 12.7 mph 21.9 mph N/A   Mostly Cloudy
1:55 PM 82.9 °F 87.2 °F 70.7 °F 66% 29.86 in 10.0 mi SSE 13.8 mph 18.4 mph N/A   Mostly Cloudy
2:15 PM 83.3 °F 87.6 °F 70.5 °F 65% 29.86 in 10.0 mi SSE 13.8 mph 17.3 mph N/A Thunderstorm Mostly Cloudy
2:35 PM 76.3 °F - 63.9 °F 65% 29.85 in 5.0 mi SSE 24.2 mph 33.4 mph 0.04 in Rain , Thunderstorm Heavy Thunderstorms and Rain
2:55 PM 71.4 °F - 66.7 °F 85% 29.85 in 10.0 mi SSE 8.1 mph - 0.10 in Rain , Thunderstorm Light Thunderstorms and Rain
3:15 PM 73.4 °F - 67.3 °F 81% 29.83 in 10.0 mi SE 3.5 mph - N/A Rain , Thunderstorm Light Thunderstorms and Rain
3:35 PM 73.9 °F - 68.9 °F 84% 29.83 in 10.0 mi South 5.8 mph - N/A Thunderstorm Thunderstorm
3:55 PM 73.4 °F - 66.2 °F 78% 29.86 in 10.0 mi SSW 26.5 mph 34.5 mph N/A Rain , Thunderstorm Thunderstorms and Rain
4:15 PM 68.2 °F - 61.5 °F 79% 29.83 in 10.0 mi South 18.4 mph 33.4 mph 0.01 in Rain , Thunderstorm Light Thunderstorms and Rain
4:35 PM 69.6 °F - 64.0 °F 82% 29.84 in 10.0 mi South 19.6 mph 25.3 mph 0.02 in Rain , Thunderstorm Rain
4:55 PM 69.1 °F - 63.7 °F 83% 29.83 in 10.0 mi South 17.3 mph 27.6 mph 0.02 in Rain , Thunderstorm Thunderstorms and Rain
5:15 PM 68.2 °F - 63.9 °F 86% 29.81 in 10.0 mi South 13.8 mph 20.7 mph 0.01 in Rain , Thunderstorm Light Thunderstorms and Rain
5:35 PM 68.9 °F - 63.1 °F 82% 29.81 in 10.0 mi SSE 10.4 mph - 0.03 in Rain , Thunderstorm Thunderstorms and Rain
5:55 PM 69.8 °F - 63.7 °F 81% 29.79 in 10.0 mi SSE 11.5 mph - 0.05 in Rain , Thunderstorm Light Thunderstorms and Rain
6:15 PM 69.1 °F - 64.4 °F 85% 29.78 in 10.0 mi South 5.8 mph - 0.01 in Rain Light Rain
6:35 PM 71.4 °F - 66.6 °F 85% 29.80 in 10.0 mi South 5.8 mph - 0.01 in   Clear
6:55 PM 72.5 °F - 67.6 °F 85% 29.82 in 10.0 mi Calm Calm - 0.01 in   Clear
8:15 PM 72.5 °F - 66.0 °F 80% 29.84 in 10.0 mi NE 4.6 mph - N/A   Clear
8:35 PM 72.1 °F - 66.0 °F 81% 29.84 in 10.0 mi East 5.8 mph - N/A   Clear
8:55 PM 71.1 °F - 66.6 °F 86% 29.83 in 10.0 mi NE 5.8 mph - N/A   Clear
9:15 PM 70.3 °F - 67.1 °F 89% 29.84 in 10.0 mi East 3.5 mph - N/A   Clear
9:35 PM 69.8 °F - 66.9 °F 91% 29.84 in 10.0 mi ESE 4.6 mph - N/A   Clear
9:55 PM 69.3 °F - 65.7 °F 88% 29.83 in 10.0 mi ESE 6.9 mph - N/A   Clear
10:15 PM 69.3 °F - 65.3 °F 87% 29.82 in 10.0 mi SE 5.8 mph - N/A   Clear
10:35 PM 68.9 °F - 64.9 °F 87% 29.83 in 10.0 mi ESE 5.8 mph - N/A   Clear
10:55 PM 68.5 °F - 65.1 °F 89% 29.84 in 10.0 mi East 9.2 mph - N/A   Clear
11:15 PM 68.5 °F - 65.3 °F 89% 29.84 in 10.0 mi East 9.2 mph - N/A   Clear
11:35 PM 68.2 °F - 64.9 °F 89% 29.85 in 10.0 mi East 9.2 mph - N/A   Clear
11:55 PM 68.2 °F - 65.1 °F 90% 29.84 in 10.0 mi East 9.2 mph - N/A   Clear